Location: *
(50.2903°S, 172.5375°W)
Time: 11:16:57
(UTC+00:00)

NOSS 3-2 (A) - Pass Details

Date: 17 November 2019
Orbit: 815 x 1393 km, 63.4° (Epoch: 25 November)

Event Time Altitude Azimuth Distance (km) Brightness Sun altitude
Exits shadow 12:52:43 19° 306° (NW) 2,693 5.3 -17.4°
Maximum altitude 12:58:54 74° 223° (SW) 1,288 4.1 -17.0°
Drops below altitude 10° 13:06:12 10° 138° (SE) 3,003 7.3 -16.5°
Sets 13:08:44 0° 135° (SE) 3,883 8.1 -16.3°
